Hourly Data Report for July 19, 2021

NORTH CAPE
PRINCE EDWARD ISLAND
Current Station Operator: ECCC - MSC

47°03'29.000" N
63°59'55.000" W
7.60 m
8300516
71987
WNE

Download Data

Hourly Data (July 2021)
Hourly Data Report for July 19, 2021
TIME
LST
Temp Definition
°C
Dew Point Definition
°C
Rel Hum Definition
%
Precip. Amount Definition
mm

Wind Dir Definition
10's deg

Wind Spd Definition
km/h
Visibility Definition
km
Stn Press Definition
kPa
Hmdx Definition


Wind Chill Definition


Weather Definition


00:00 19.9 16.6 81 0.0 20 10   101.55     LegendNANA
01:00 19.8 17.2 85 0.0 18 9   101.50     LegendNANA
02:00 20.1 17.6 86 0.0 21 11   101.48 26   LegendNANA
03:00 20.1 17.4 85 0.0 21 9   101.46 26   LegendNANA
04:00 19.5 17.2 87 0.0 20 10   101.41     LegendNANA
05:00 19.9 16.7 82 0.0 19 8   101.41     LegendNANA
06:00 19.9 18.1 89 0.0 20 11   101.43     LegendNANA
07:00 22.7 18.4 77 0.0 19 6   101.40 29   LegendNANA
08:00 22.5 18.1 76 0.0 21 6   101.42 29   LegendNANA
09:00 22.3 18.2 78 0.0 16 11   101.40 28   LegendNANA
10:00 22.2 18.4 79 0.0 15 13   101.37 29   LegendNANA
11:00 21.0 18.9 87 0.0 14 18   101.34 28   LegendNANA
12:00 22.4 19.8 85 0.0 12 14   101.27 30   LegendNANA
13:00 20.8 18.3 86 0.0 14 16   101.25 27   LegendNANA
14:00 21.0 18.7 87 0.0 14 17   101.21 28   LegendNANA
15:00 20.1 18.5 90 0.0 14 14   101.17 26   LegendNANA
16:00 20.1 18.6 91 0.0 14 14   101.15 27   LegendNANA
17:00 20.3 18.8 91 0.0 13 12   101.07 27   LegendNANA
18:00 20.2 18.8 92 0.0 15 10   101.04 27   LegendNANA
19:00 20.1 18.7 92 0.0 16 9   101.01 27   LegendNANA
20:00 20.1 18.7 92 0.0 16 10   100.97 27   LegendNANA
21:00 19.6 18.7 94 0.0 16 11   100.92     LegendNANA
22:00 19.9 18.9 94 0.0 16 10   100.91     LegendNANA
23:00 19.8 19.0 95 0.0 20 8   100.86     LegendNANA

Notes on Data Quality.

Legend

  • E = Estimated
  • M = Missing
  • NA = Not Available*
  • [empty] = Indicates an unobserved value
Date modified: